Location: *
(17.3280°S, 114.7300°W)
Time: 07:22:53
(UTC+00:00)

Cosmos 1953 Rocket - Pass Details

Date: 05 August 2020
Orbit: 604 x 635 km, 82.5° (Epoch: 20 September)

Event Time Altitude Azimuth Distance (km) Brightness Sun altitude
Rises 13:20:45 0° 336° (NNW) 2,899 6.9 -10.5°
Reaches altitude 10° 13:23:11 10° 326° (NW) 1,995 6.0 -9.9°
Maximum altitude 13:27:06 31° 263° (W) 1,101 4.3 -9.0°
Drops below altitude 10° 13:31:01 10° 201° (SSW) 1,997 5.8 -8.1°
Sets 13:33:28 0° 190° (S) 2,903 6.7 -7.6°
